Miscellaneous Local Product
Issued by NWS Hastings, NE

Home | Current Version | Previous Version | Graphics & Text | Print | Product List | Glossary On
Versions: 1 2 3 4 5 6 7 8 9 10 11 12 13 14 15 16 17 18 19 20 21 22 23 24 25 26 27 28 29 30 31 32 33 34 35 36 37 38 39 40 41 42 43 44 45 46 47 48 49 50
000
AXUS43 KGID 271002
MISGRI

GID CWA HOURLY WEATHER ROUNDUP
NATIONAL WEATHER SERVICE HASTINGS NE
400 AM CST FRI FEB 27 2015

NOTE: "FAIR" INDICATES FEW OR NO CLOUDS BELOW 12,000 FEET WITH NO
SIGNIFICANT WEATHER AND/OR OBSTRUCTIONS TO VISIBILITY.

...SOUTH CENTRAL NEBRASKA...

CITY           SKY/WX    TMP DP  RH WIND       PRES   REMARKS
GRAND ISLAND   CLEAR     -3  -8  79 NW3       30.52F
HASTINGS       CLEAR     -3  -9  75 SW5       30.49F WCI -13
KEARNEY        CLEAR      0  -8  71 NW3       30.47F
ORD            CLEAR     -8 -14  74 SW3       30.48F
YORK             N/A     -2  -8  78 N3        30.53F
AURORA         CLEAR     -5  -9  80 N6        30.51F WCI -17
LEXINGTON      CLEAR      0  -5  78 CALM      30.45F
HOLDREGE       CLEAR      0  -7  74 CALM      30.46F
HEBRON         CLEAR     -1  -6  80 CALM      30.55F

...NEBRASKA PANHANDLE...

CITY           SKY/WX    TMP DP  RH WIND       PRES   REMARKS
CHADRON        PTCLDY    -7 -13  75 CALM      30.30F
ALLIANCE       CLOUDY     2  -3  80 SE10      30.24F WCI -14
SCOTTSBLUFF    LGT SNOW   7   1  76 SE14      30.22F WCI -10
SIDNEY         CLOUDY     4  -3  73 SE10      30.20F WCI -11

...WESTERN AND NORTH CENTRAL NEBRASKA...

CITY           SKY/WX    TMP DP  RH WIND       PRES   REMARKS
VALENTINE      CLEAR     -6 -11  79 W3        30.41F
AINSWORTH      CLEAR     -4  -9  80 SW5       30.41F WCI -15
ONEILL         CLEAR     -3  -7  82 W5        30.48F WCI -13
BROKEN BOW     CLEAR     -8 -12  83 N3        30.42F
IMPERIAL       CLOUDY     6  -4  63 SE9       30.34F WCI  -8
NORTH PLATTE   CLEAR     -3  -8  79 CALM      30.41F
MCCOOK         CLOUDY     8  -2  63 E7        30.43F WCI  -3

...EASTERN NEBRASKA...

CITY           SKY/WX    TMP DP  RH WIND       PRES   REMARKS
NORFOLK        CLEAR     -4  -9  79 SW3       30.53F
SO SIOUX CITY  CLEAR     -3  -9  75 CALM      30.59S
TEKAMAH        CLEAR     -3  -9  75 W6        30.60F WCI -15
COLUMBUS       CLEAR     -2 -15  55 CALM      30.56F
ALBION         CLEAR     -7 -13  76 CALM      30.52F
OMAHA EPPLEY   CLEAR     -2  -7  79 NW6       30.60F WCI -14
OFFUTT AFB     CLEAR      0  -6  75 NW6       30.59S WCI -12
MILLARD        CLEAR      0  -6  74 NW5       30.60S WCI -10
LINCOLN        CLEAR     -5  -9  83 N6        30.59F WCI -18
NEBRASKA CITY  CLEAR     -1  -8  71 NW6       30.58S WCI -12
BEATRICE       CLEAR     -2  -5  86 CALM      30.57S
FALLS CITY     CLEAR     -3  -8  79 NW5       30.59F WCI -13

...NORTHERN KANSAS...

CITY           SKY/WX    TMP DP  RH WIND       PRES   REMARKS
GOODLAND       LGT SNOW  11   7  84 SE15      30.28F FOG     WCI  -5
HILL CITY      CLOUDY     8  -2  63 E5        30.47F WCI   0
NORTON         SUNNY      9  -2  61 E6        30.45  WCI  -1
PHILLIPSBURG   CLEAR      9   0  66 NE5       30.52S WCI   0
HAYS           CLOUDY     9  -8  47 E8        30.48S WCI  -4
RUSSELL        CLOUDY     8   1  73 SE6       30.50S WCI  -2
CONCORDIA      PTCLDY     4   0  83 CALM      30.54F
SALINA         PTCLDY     9   0  67 CALM      30.57F
TOPEKA         CLEAR      4  -2  76 N3        30.61F



USA.gov is the U.S. government's official web portal to all federal, state and local government web resources and services.